Home > Weather > Almería > Past weeks

Flag for Spain Past Weather in Almería, Spain — Yesterday and Last 2 Weeks

Now
90 °F

Sunny.


Feels Like: 90 °F
Forecast: 70 / 96 °F
Wind: 17 mph from East

Location: Almeria / Aeropuerto

Current Time: Jul 29, 2016 at 2:22:23 AM

Latest Report: Jul 28, 2016 at 8:00 PM


Visibility: 31 mi

Pressure: 29.95 "Hg

Humidity: 36%

Dew Point: 60 °F

Location of AlmeríaLocation

Past Weather in Almería — Graph

°F

Almería Temperature Yesterday

Maximum temperature yesterday: 99 °F (at 3:00 PM)
Minimum temperature yesterday: 75 °F (at 4:00 AM)
Average temperature yesterday: 82 °F

High & Low Weather Summary for the Past Weeks

 TemperatureHumidityPressure
High99 °F (Jul 28, 3:00 PM)92% (Jul 22, 3:00 AM)30.14 "Hg (Jul 22, 3:00 AM)
Low72 °F (Jul 17, 7:00 AM)20% (Jul 26, 2:00 PM)29.82 "Hg (Jul 22, 5:00 AM)
Average82 °F53%30.03 "Hg
* Reported Jul 13 8:00 PM — Jul 28 8:00 PM, Almería, Weather by CustomWeather, © 2016

Note: Actual official high and low records may vary slightly from our data, if they occured in-between our weather recording intervals... More about our weather records

Advertising

Almería Weather History for the Previous 24 Hours

Scroll right to see more
 ConditionsComfort  
Time TempWeatherWind HumidityBarometerVisibility
8:00 PM
Thu, Jul 28
90 °FSunny.17 mph36%29.95 "Hg31 mi
6:00 PM84 °FWarm.15 mph69%29.96 "HgN/A
3:00 PM99 °FExtremely hot.18 mph21%29.98 "HgN/A
2:00 PM89 °FSunny.10 mph48%30.00 "Hg25 mi
1:00 PM87 °FWarm.7 mph53%30.03 "HgN/A
12:00 PM84 °FWarm.12 mph61%30.04 "HgN/A
11:00 AM83 °FSunny.9 mph60%30.03 "Hg31 mi
10:00 AM81 °FWarm.8 mph72%30.03 "HgN/A
9:00 AM81 °FWarm.7 mph68%30.00 "HgN/A
8:00 AM81 °FPassing clouds.12 mph33%29.98 "Hg31 mi
7:00 AM80 °FPleasantly warm.16 mph35%29.97 "HgN/A
6:00 AM79 °FWarm.10 mph41%29.98 "HgN/A
5:00 AM76 °FClear.2 mph59%29.99 "Hg25 mi
4:00 AM75 °FMild.No wind75%30.00 "HgN/A
3:00 AM77 °FMild.No wind76%30.01 "HgN/A
2:00 AM78 °FWarm.2 mph66%30.01 "HgN/A
Weather by CustomWeather, © 2016

See weather overviewHow to use our weather pages